This is the latest recevied weather packets stored in our database for station/object SQ5BUJ-13. If no packets are shown the sender has not sent any weather packets the latest 10 day(s).
| Time | Temp. | Humidity | Pressure | Rain* | Wind** | Luminosity | Snow |
|---|---|---|---|---|---|---|---|
| 1777925341 | 19.44° C | 40% | 1011 hPa | - | - | - | - |
| 1777923866 | 19.44° C | 40% | 1011 hPa | - | - | - | - |
| 1777922350 | 19.44° C | 40% | 1011 hPa | - | - | - | - |
| 1777920770 | 23.33° C | 30% | 1010.6 hPa | - | - | - | - |
| 1777919050 | 23.33° C | 30% | 1010.6 hPa | - | - | - | - |
| 1777917456 | 26.11° C | 26% | 1010.3 hPa | - | - | - | - |
| 1777915861 | 26.11° C | 26% | 1010.3 hPa | - | - | - | - |
| 1777914130 | 26.67° C | 24% | 1010.4 hPa | - | - | - | - |
| 1777912381 | 26.67° C | 24% | 1010.4 hPa | - | - | - | - |
| 1777910756 | 27.22° C | 23% | 1010.6 hPa | - | - | - | - |
| 1777909226 | 27.22° C | 23% | 1010.6 hPa | - | - | - | - |
| 1777907616 | 27.22° C | 24% | 1011 hPa | - | - | - | - |
| 1777904376 | 27.22° C | 24% | 1011 hPa | - | - | - | - |
| 1777902770 | 26.67° C | 23% | 1011.6 hPa | - | - | - | - |
| 1777901246 | 26.67° C | 23% | 1011.6 hPa | - | - | - | - |
| 1777899666 | 26.11° C | 26% | 1012.1 hPa | - | - | - | - |
| 1777897936 | 26.11° C | 26% | 1012.1 hPa | - | - | - | - |
| 1777896231 | 25.56° C | 25% | 1012.5 hPa | - | - | - | - |
| 1777894687 | 25.56° C | 25% | 1012.5 hPa | - | - | - | - |
| 1777893222 | 24.44° C | 26% | 1012.9 hPa | - | - | - | - |
| 1777891610 | 24.44° C | 26% | 1012.9 hPa | - | - | - | - |
| 1777889135 | 23.33° C | 27% | 1013.4 hPa | - | - | - | - |
| 1777886638 | 23.33° C | 27% | 1013.4 hPa | - | - | - | - |
| 1777884143 | 21.67° C | 28% | 1013.7 hPa | - | - | - | - |
| 1777881733 | 20.56° C | 30% | 1013.7 hPa | - | - | - | - |
* Rain since midnight (hover to see other rain measurements)
** Current wind speed in m/s (hover to see current wind gust speed)